[[{"header":{"parameterUnit":"m.s-1","parameterCategory":1,"la1":30.2991,"la2":30.254,"lo1":-89.0895,"lo2":-89.0444,"dy":0.0017,"dx":0.0017,"nx":28,"ny":28,"refTime":"2023-09-23T03:00:00:Z","depth":0,"parameterNumber":2,"parameterNumberName":"U-component_of_WINDS"},"data":[0,0,0,0,0,0,0,0,0,0,0,0,0,0,0,0,0,0,0,0,0,0,0,0,0,0,0,0,0,0,0,0,0,0,0,0,0,0,0,0,0,0,0,0,0,0,0,0,0,0,0,0,0,0,0,0,0,0,-1.1858,-1.1857,0,-1.173,-1.1729,-1.1727,-1.1636,-1.1635,-1.1635,-1.1634,-1.1499,-1.1497,-1.1494,0,0,0,0,0,0,0,0,0,0,0,0,0,-1.2022,-1.2019,-1.1858,-1.1857,-1.1855,-1.173,-1.1728,-1.1727,-1.1636,-1.1635,-1.1634,-1.1634,-1.15,-1.1497,-1.1493,0,0,0,0,0,0,0,0,0,0,0,0,0,-1.1928,-1.2019,-1.1858,-1.1795,-1.1788,-1.1731,-1.1728,-1.1726,-1.1636,-1.1635,-1.1634,-1.1633,-1.1501,-1.1497,-1.1493,-1.1488,0,0,-1.148,-1.1478,0,0,0,0,0,0,0,0,-1.1933,-1.1922,-1.1806,-1.1799,-1.1791,-1.1698,-1.1737,-1.1646,-1.1637,-1.1694,-1.1634,-1.1633,-1.1566,-1.1556,-1.1535,-1.1481,-1.1476,-1.1479,-1.1477,-1.1475,-1.1473,0,0,0,0,0,0,0,-1.194,-1.1927,-1.1807,-1.1804,-1.1795,-1.1772,-1.1757,-1.1719,-1.1637,-1.1689,-1.1682,-1.1668,-1.1562,-1.1539,-1.1531,-1.1474,-1.1479,-1.1475,-1.1473,-1.1471,-1.1411,-1.1412,0,0,0,0,0,0,-1.1957,-1.1933,-1.1811,-1.1803,-1.1861,-1.177,-1.1754,-1.1729,-1.1638,-1.1623,-1.1669,-1.1664,-1.1547,-1.1536,-1.1526,-1.1514,-1.1475,-1.1471,-1.1468,-1.141,-1.1411,-1.1412,0,0,0,0,0,0,-1.1961,-1.1947,-1.1816,-1.1866,-1.1848,-1.1768,-1.1741,-1.1727,-1.1704,-1.1623,-1.1608,-1.1661,-1.1546,-1.1532,-1.1498,-1.1508,-1.1469,-1.1465,-1.1409,-1.141,-1.1412,-1.1491,0,0,0,0,0,0,-1.1966,-1.1949,-1.1946,-1.1867,-1.1846,-1.1792,-1.1742,-1.1725,-1.1697,-1.169,-1.1611,-1.1597,-1.1544,-1.1505,-1.1494,-1.1502,-1.1461,-1.1407,-1.1409,-1.1411,-1.1487,-1.1495,-1.1502,0,0,0,0,0,-1.1972,-1.1973,-1.1947,-1.1933,-1.1841,-1.1793,-1.1781,-1.172,-1.1698,-1.1695,-1.1643,-1.16,-1.1509,-1.1503,-1.1489,-1.1496,-1.1406,-1.1409,-1.1411,-1.1484,-1.1494,-1.1502,0,0,0,0,0,0,-1.2054,-1.1961,-1.1931,-1.1907,-1.1859,-1.1778,-1.1771,-1.1732,-1.1688,-1.1683,-1.1609,-1.1592,-1.1567,-1.1527,-1.1522,-1.1486,-1.1453,-1.1452,-1.1513,-1.1521,-1.1529,-1.1538,-1.1458,0,0,0,0,0,-1.2069,-1.2039,-1.1959,-1.1945,-1.1923,-1.1852,-1.1828,-1.1786,-1.1733,-1.1712,-1.1657,-1.1606,-1.1567,-1.1542,-1.15,-1.1482,-1.1463,-1.1479,-1.1487,-1.1493,-1.1494,-1.1482,-1.1488,-1.142,-1.142,-1.142,0,0,-1.21,-1.2046,-1.2031,-1.196,-1.1918,-1.1887,-1.1835,-1.1804,-1.1781,-1.1706,-1.1672,-1.1631,-1.1569,-1.1544,-1.1529,-1.151,-1.1509,-1.1496,-1.1502,-1.1499,-1.1485,-1.1492,-1.1498,-1.1421,-1.1421,-1.1421,0,0,-1.2141,-1.2097,-1.2081,-1.204,-1.1978,-1.1931,-1.1928,-1.1853,-1.1823,-1.1788,-1.1732,-1.1703,-1.1635,-1.1594,-1.1564,-1.1593,-1.1551,-1.1581,-1.1619,-1.1609,-1.1614,-1.1619,-1.1629,-1.1634,-1.1582,-1.1582,-1.1582,0,-1.2187,-1.214,-1.2077,-1.2051,-1.2022,-1.1955,-1.1938,-1.1901,-1.1828,-1.1809,-1.1789,-1.1705,-1.1659,-1.1623,-1.163,-1.1608,-1.1602,-1.1589,-1.1619,-1.1622,-1.1626,-1.1635,-1.1639,-1.1586,-1.1586,-1.1585,-1.1585,0,-1.22,-1.2168,-1.2162,-1.2096,-1.2066,-1.2044,-1.1978,-1.1955,-1.1917,-1.1872,-1.1837,-1.178,-1.1727,-1.1715,-1.1676,-1.1674,-1.1665,-1.1633,-1.1597,-1.1637,-1.1645,-1.1648,-1.1592,-1.1591,-1.1589,-1.1588,0,0,-1.2287,-1.2188,-1.2186,-1.2156,-1.2083,-1.2057,-1.2033,-1.1982,-1.1964,-1.1917,-1.1894,-1.184,-1.1811,-1.1778,-1.1734,-1.1724,-1.1751,-1.1693,-1.1691,-1.1707,-1.1747,-1.1771,-1.1776,-1.1724,-1.1724,-1.1725,-1.1752,0,-1.2317,-1.2271,-1.2215,-1.2188,-1.2158,-1.2095,-1.2074,-1.2027,-1.1985,-1.1953,-1.1906,-1.187,-1.1833,-1.1813,-1.1801,-1.1751,-1.1759,-1.1748,-1.1702,-1.1701,-1.172,-1.178,-1.1805,-1.1834,-1.1755,-1.1755,-1.1755,0,-1.2345,-1.2302,-1.2273,-1.2204,-1.219,-1.2172,-1.2122,-1.2092,-1.2038,-1.2008,-1.1973,-1.1926,-1.1897,-1.1866,-1.1826,-1.182,-1.1798,-1.1771,-1.1771,-1.1763,-1.1731,-1.1775,-1.1841,-1.1846,-1.1759,-1.1759,-1.1759,0,-1.2412,-1.2347,-1.2322,-1.2297,-1.2216,-1.2206,-1.2171,-1.2116,-1.209,-1.2046,-1.2028,-1.1981,-1.1955,-1.192,-1.1862,-1.1845,-1.1828,-1.1792,-1.1803,-1.1804,-1.1801,-1.1802,-1.1865,-1.1788,-1.1788,-1.1788,-1.1788,0,-1.2451,-1.2435,-1.2351,-1.2335,-1.2316,-1.2252,-1.2235,-1.2195,-1.2147,-1.2122,-1.2064,-1.2042,-1.1967,-1.1936,-1.1891,-1.1865,-1.1853,-1.1828,-1.1816,-1.1833,-1.1836,-1.1817,-1.1814,-1.1789,-1.1788,-1.1788,-1.1788,0,-1.2522,-1.2465,-1.2433,-1.236,-1.2342,-1.2331,-1.2268,-1.225,-1.2206,-1.2175,-1.2164,-1.2095,-1.2055,-1.1994,-1.1936,-1.1906,-1.1888,-1.1868,-1.1906,-1.1899,-1.1913,-1.1913,-1.1966,-1.197,-1.1891,-1.1892,-1.1892,0,-1.2551,-1.2538,-1.2464,-1.2444,-1.2412,-1.238,-1.2354,-1.2291,-1.2266,-1.2204,-1.2194,-1.2151,-1.2112,-1.2053,-1.1996,-1.1952,-1.1931,-1.1953,-1.1923,-1.1942,-1.1931,-1.1933,-1.1932,-1.1959,-1.196,-1.1961,-1.1962,0,-1.2608,-1.2581,-1.2545,-1.2501,-1.2471,-1.2433,-1.2391,-1.2378,-1.2305,-1.228,-1.224,-1.2211,-1.2153,-1.2111,-1.2059,-1.2023,-1.1981,-1.1972,-1.1972,-1.1989,-1.2012,-1.2,-1.1925,-1.1971,-1.197,-1.1969,-1.1969,-1.1968,-1.2658,-1.2644,-1.2591,-1.2554,-1.2516,-1.248,-1.246,-1.2414,-1.238,-1.2329,-1.2294,-1.2256,-1.2203,-1.213,-1.2096,-1.2066,-1.2047,-1.2047,-1.2047,-1.2048,-1.2055,-1.2018,-1.2056,-1.2056,-1.2055,-1.2055,-1.2055,0,-1.2712,-1.2675,-1.2642,-1.2587,-1.2558,-1.2523,-1.2475,-1.2453,-1.2421,-1.2376,-1.2341,-1.2296,-1.2255,-1.2197,-1.2151,-1.2138,-1.2118,-1.2129,-1.2129,-1.2121,-1.2074,-1.2078,-1.2146,-1.2146,-1.2146,-1.2146,-1.2146,-1.2146,-1.2737,-1.2712,-1.2679,-1.2635,-1.2598,-1.2562,-1.2538,-1.2504,-1.2468,-1.242,-1.2387,-1.2349,-1.2299,-1.225,-1.2212,-1.2195,-1.2181,-1.2198,-1.2176,-1.2133,-1.2124,-1.2116,-1.212,-1.2196,-1.2196,-1.2226,-1.2227,-1.2227]},{"header":{"parameterUnit":"m.s-1","parameterCategory":1,"la1":30.2991,"la2":30.254,"lo1":-89.0895,"lo2":-89.0444,"dy":0.0017,"dx":0.0017,"nx":28,"ny":28,"refTime":"2023-09-23T03:00:00:Z","depth":0,"parameterNumber":3,"parameterNumberName":"V-component_of_WINDS"},"data":[0,0,0,0,0,0,0,0,0,0,0,0,0,0,0,0,0,0,0,0,0,0,0,0,0,0,0,0,0,0,0,0,0,0,0,0,0,0,0,0,0,0,0,0,0,0,0,0,0,0,0,0,0,0,0,0,0,0,2.8901,2.8901,0,2.8877,2.8877,2.8877,2.8862,2.8862,2.8862,2.8861,2.8837,2.8836,2.8836,0,0,0,0,0,0,0,0,0,0,0,0,0,2.8932,2.8932,2.8901,2.8901,2.8901,2.8878,2.8877,2.8877,2.8862,2.8862,2.8862,2.8861,2.8837,2.8836,2.8835,0,0,0,0,0,0,0,0,0,0,0,0,0,2.8915,2.8931,2.8901,2.889,2.8889,2.8878,2.8877,2.8877,2.8862,2.8862,2.8861,2.8861,2.8837,2.8836,2.8835,2.8833,0,0,2.8833,2.8832,0,0,0,0,0,0,0,0,2.8916,2.8913,2.8892,2.8891,2.889,2.8872,2.8879,2.8862,2.8862,2.8872,2.8861,2.8861,2.8849,2.8847,2.8843,2.8832,2.8831,2.8833,2.8832,2.8832,2.8832,0,0,0,0,0,0,0,2.8917,2.8914,2.8892,2.8892,2.889,2.8886,2.8883,2.8876,2.8861,2.8871,2.887,2.8867,2.8848,2.8844,2.8842,2.883,2.8833,2.8832,2.8831,2.8831,2.8815,2.8815,0,0,0,0,0,0,2.892,2.8915,2.8892,2.8891,2.8902,2.8886,2.8883,2.8878,2.8861,2.8859,2.8868,2.8867,2.8845,2.8843,2.8841,2.8836,2.8832,2.8831,2.8831,2.8815,2.8815,2.8815,0,0,0,0,0,0,2.8921,2.8918,2.8893,2.8903,2.8899,2.8885,2.888,2.8878,2.8873,2.8859,2.8856,2.8866,2.8845,2.8842,2.8835,2.8835,2.8831,2.883,2.8815,2.8815,2.8815,2.8827,0,0,0,0,0,0,2.8922,2.8918,2.8918,2.8903,2.8899,2.8888,2.888,2.8877,2.8872,2.8871,2.8856,2.8854,2.8845,2.8836,2.8834,2.8834,2.8829,2.8814,2.8815,2.8815,2.8826,2.8828,2.8828,0,0,0,0,0,2.8923,2.8922,2.8918,2.8915,2.8898,2.8888,2.8886,2.8875,2.8872,2.8871,2.8861,2.8854,2.8836,2.8836,2.8833,2.8833,2.8814,2.8815,2.8815,2.8826,2.8827,2.8828,0,0,0,0,0,0,2.8937,2.892,2.8915,2.8909,2.89,2.8886,2.8884,2.8877,2.8869,2.8868,2.8855,2.8852,2.8845,2.8838,2.8839,2.8829,2.8824,2.8824,2.8834,2.8835,2.8836,2.8837,2.8828,0,0,0,0,0,2.8939,2.8933,2.8919,2.8915,2.8911,2.8898,2.8894,2.8886,2.8876,2.8872,2.8862,2.8852,2.8844,2.8839,2.8831,2.8825,2.8822,2.8824,2.8825,2.8826,2.8825,2.8821,2.8822,2.8815,2.8815,2.8815,0,0,2.8945,2.8935,2.8931,2.8918,2.891,2.8903,2.8895,2.8889,2.8883,2.8871,2.8863,2.8856,2.8844,2.8837,2.8834,2.8831,2.8826,2.8826,2.8827,2.8826,2.8821,2.8822,2.8822,2.8816,2.8816,2.8816,0,0,2.895,2.8943,2.8938,2.8931,2.8919,2.891,2.8909,2.8895,2.8889,2.8881,2.8872,2.8865,2.8851,2.8843,2.8837,2.8839,2.8832,2.8837,2.8842,2.8838,2.8838,2.8838,2.8838,2.8839,2.8837,2.8837,2.8837,0,2.8958,2.8948,2.8937,2.8931,2.8925,2.8914,2.8909,2.8902,2.8888,2.8884,2.8881,2.8863,2.8854,2.8845,2.8845,2.8841,2.8839,2.8838,2.8839,2.8839,2.8839,2.8839,2.8839,2.8837,2.8837,2.8837,2.8837,0,2.8958,2.8951,2.8949,2.8936,2.893,2.8924,2.8912,2.8907,2.89,2.8891,2.8883,2.8872,2.8861,2.8858,2.8851,2.8848,2.8846,2.8841,2.8836,2.8841,2.884,2.884,2.8838,2.8838,2.8838,2.8837,0,0,2.8972,2.8953,2.8952,2.8945,2.8931,2.8925,2.8919,2.8908,2.8904,2.8894,2.8888,2.8877,2.8872,2.8865,2.8857,2.8854,2.8855,2.8849,2.8848,2.885,2.8849,2.8853,2.8853,2.885,2.885,2.885,2.885,0,2.8976,2.8964,2.8954,2.8946,2.8939,2.8928,2.8922,2.8913,2.8904,2.8897,2.8888,2.8879,2.8874,2.8869,2.8866,2.8855,2.8854,2.8855,2.8844,2.8843,2.8847,2.8853,2.8856,2.8857,2.885,2.885,2.885,0,2.8978,2.8969,2.896,2.8946,2.8943,2.8938,2.8927,2.892,2.8908,2.8903,2.8895,2.8886,2.8878,2.8874,2.8863,2.8864,2.8859,2.8853,2.8853,2.8851,2.8847,2.8851,2.8857,2.8857,2.8849,2.8849,2.8849,0,2.8988,2.8974,2.8967,2.8962,2.8945,2.8942,2.8934,2.8923,2.8917,2.8907,2.8902,2.8892,2.8886,2.8877,2.8866,2.8864,2.8856,2.8851,2.885,2.885,2.8849,2.8849,2.8854,2.8846,2.8846,2.8846,2.8846,0,2.8993,2.8988,2.8971,2.8967,2.8961,2.8948,2.8943,2.8934,2.8924,2.8917,2.8907,2.8901,2.8886,2.8878,2.8869,2.8861,2.8858,2.8853,2.885,2.8854,2.8854,2.885,2.8849,2.8846,2.8846,2.8846,2.8846,0,2.9003,2.8992,2.8983,2.8968,2.8964,2.896,2.8947,2.8942,2.8933,2.8924,2.8922,2.8908,2.8897,2.8885,2.8871,2.8865,2.8857,2.8854,2.8861,2.886,2.8859,2.886,2.8861,2.8861,2.8854,2.8854,2.8854,0,2.9007,2.9003,2.8987,2.8982,2.8975,2.8967,2.896,2.8948,2.8942,2.8928,2.8924,2.8913,2.8904,2.8888,2.8876,2.8865,2.8861,2.8863,2.886,2.8863,2.8861,2.8861,2.886,2.8864,2.8864,2.8864,2.8864,0,2.9014,2.9008,2.9,2.8989,2.8982,2.8972,2.8963,2.8959,2.8945,2.8938,2.8928,2.892,2.8906,2.8895,2.8882,2.8874,2.8866,2.8865,2.8864,2.8867,2.8871,2.8868,2.8863,2.8865,2.8865,2.8865,2.8865,2.8865,2.902,2.9016,2.9004,2.8994,2.8986,2.8977,2.8971,2.8962,2.8953,2.894,2.8933,2.8923,2.8911,2.8893,2.8885,2.8876,2.8874,2.8872,2.8872,2.8872,2.8873,2.8873,2.8874,2.8874,2.8874,2.8874,2.8874,0,2.9026,2.9018,2.9009,2.8996,2.8988,2.8982,2.8971,2.8965,2.8956,2.8945,2.8936,2.8924,2.8913,2.89,2.8888,2.8884,2.888,2.8881,2.8881,2.8879,2.8876,2.8878,2.8884,2.8884,2.8884,2.8884,2.8884,2.8884,2.9028,2.902,2.9013,2.9,2.8992,2.8982,2.8976,2.8968,2.8959,2.8946,2.8937,2.8929,2.8917,2.8904,2.8893,2.889,2.8886,2.8888,2.8883,2.888,2.888,2.8879,2.888,2.8887,2.8887,2.8887,2.8887,2.8887]}]]